Location: Baggettsville
(36.4767°N, 86.7303°W)
Time: 22:58:09
(UTC+00:00)

BlueWalker 3 - Visible Passes

Search period start: 26 November 2022 00:00
Search period end: 06 December 2022 00:00
Orbit: 500 x 519 km, 53.2° (Epoch: 26 November)

Date Brightness Start Highest point End Pass type
(mag) Time Alt. Az. Time Alt. Az. Time Alt. Az.
26 Nov 4.5 00:27:35 10° NW 00:29:11 12° NNW 00:29:50 12° NNW visible
27 Nov 4.5 00:09:29 10° NW 00:10:55 12° NNW 00:12:18 10° N visible
27 Nov 4.5 23:51:24 10° NW 23:52:38 11° NNW 23:53:52 10° N visible
28 Nov 4.5 23:33:20 10° NW 23:34:21 11° NNW 23:35:22 10° N visible
29 Nov 4.5 23:15:20 10° NNW 23:16:04 10° NNW 23:16:48 10° N visible
